Weather History for Hutchinson, KS

Change the Weather History Date:

Wednesday, May 15, 2013

  Actual Average Record
Temperature  
Mean Temperature 71 °F -  
Max Temperature 84 °F 76 °F 91 °F (2001)
Min Temperature 59 °F 50 °F 37 °F (2004)
Cooling Degree Days 6    
Growing Degree Days 21 (Base 50)    
Moisture  
Dew Point 56 °F    
Average Humidity 63    
Maximum Humidity 87    
Minimum Humidity 38    
Precipitation  
Precipitation 0.00 in - - ()
Sea Level Pressure  
Sea Level Pressure 29.80 in    
Wind  
Wind Speed 12 mph (South)    
Max Wind Speed 25 mph    
Max Gust Speed 31 mph    
Visibility 10 miles    
Events      
Averages and records for this station are not official NWS values.
T = Trace of Precipitation, MM = Missing Value Source: NWS Daily Summary

Daily Weather History Graph

Daily Weather History Graph

Search for Another Location

Airport:

Trip Planner

Search our weather history database for the weather conditions in past years. The results will help you decide how hot, cold, wet, or windy it might be!

Date:

Astronomy

May. 15, 2013 Rise Set
Actual Time 6:20 AM CDT 8:35 PM CDT
Civil Twilight 5:51 AM CDT 9:05 PM CDT
Nautical Twilight 5:14 AM CDT 9:41 PM CDT
Astronomical Twilight 4:35 AM CDT 10:21 PM CDT
Moon 10:56 AM CDT (5/15) 12:23 AM CDT (5/15)
Length of Visible Light 15h 13m
Length of Day
14h 14m
Waxing Crescent, 27% of the Moon is Illuminated
May 15
Waxing Crescent
May 17
First Quarter
May 24
Full
May 31
Last Quarter
Jun 8
New

Hourly Weather History & Observations

Time (CDT) Temp. Heat Index Dew Point Humidity Pressure Visibility Wind Dir Wind Speed Gust Speed Precip Events Conditions
12:52 AM 72.0 °F - 53.1 °F 51% 29.80 in 10.0 mi South 13.8 mph 23.0 mph N/A   Clear
1:52 AM 70.0 °F - 54.0 °F 57% 29.80 in 10.0 mi South 16.1 mph - N/A   Clear
2:52 AM 68.0 °F - 54.0 °F 61% 29.80 in 10.0 mi South 10.4 mph - N/A   Clear
3:52 AM 64.9 °F - 55.0 °F 70% 29.80 in 10.0 mi South 8.1 mph - N/A   Clear
4:52 AM 63.0 °F - 55.0 °F 75% 29.80 in 10.0 mi South 9.2 mph - N/A   Clear
5:52 AM 60.1 °F - 54.0 °F 80% 29.81 in 10.0 mi SSE 5.8 mph - N/A   Clear
6:52 AM 62.1 °F - 54.0 °F 75% 29.82 in 10.0 mi SSE 8.1 mph - N/A   Clear
7:52 AM 66.0 °F - 55.0 °F 68% 29.82 in 10.0 mi South 9.2 mph - N/A   Clear
8:52 AM 71.1 °F - 55.0 °F 57% 29.82 in 10.0 mi South 6.9 mph - N/A   Clear
9:52 AM 75.0 °F - 55.9 °F 51% 29.82 in 10.0 mi South 13.8 mph - N/A   Clear
10:52 AM 78.1 °F - 55.9 °F 46% 29.81 in 10.0 mi South 12.7 mph - N/A   Clear
11:52 AM 82.0 °F 82.0 °F 57.9 °F 44% 29.79 in 10.0 mi South 18.4 mph 25.3 mph N/A   Clear
12:52 PM 81.0 °F 81.0 °F 57.0 °F 44% 29.80 in 10.0 mi South 18.4 mph - N/A   Clear
1:52 PM 82.0 °F 81.3 °F 54.0 °F 38% 29.79 in 10.0 mi South 25.3 mph 31.1 mph N/A   Clear
2:52 PM 82.9 °F 84.0 °F 63.0 °F 51% 29.78 in 10.0 mi South 23.0 mph 27.6 mph N/A   Clear
3:52 PM 81.0 °F 81.6 °F 60.1 °F 49% 29.77 in 10.0 mi South 17.3 mph - N/A   Clear
4:52 PM 75.9 °F - 62.1 °F 62% 29.78 in 10.0 mi South 21.9 mph 28.8 mph N/A   Clear
5:52 PM 75.9 °F - 60.1 °F 58% 29.78 in 10.0 mi South 19.6 mph 24.2 mph N/A   Clear
6:52 PM 73.0 °F - 59.0 °F 61% 29.78 in 10.0 mi South 21.9 mph 28.8 mph N/A   Scattered Clouds
7:52 PM 69.1 °F - 57.9 °F 68% 29.78 in 10.0 mi South 8.1 mph - N/A   Clear
8:52 PM 64.9 °F - 57.0 °F 75% 29.78 in 10.0 mi SSE 5.8 mph - N/A   Clear
9:52 PM 62.1 °F - 55.9 °F 80% 29.80 in 10.0 mi SSE 4.6 mph - N/A   Clear
10:52 PM 60.1 °F - 55.9 °F 86% 29.82 in 10.0 mi East 3.5 mph - N/A   Clear
11:45 PM 60.8 °F - 55.4 °F 82% 29.88 in 10.0 mi Calm Calm - N/A   Mostly Cloudy
11:52 PM 59.0 °F - 55.0 °F 87% 29.82 in 10.0 mi Calm Calm - N/A   Scattered Clouds